DW0479 Weather Reports


time (UTC)temp
F
wind
direction
speed
knots
gust
knots
rain 1hr
in
rain 24hr
in
rain mn
in
humidity
%
barometer
mb
20240614121638 76 187 0.0 0.0 0.00 0.03 0.00 95 1013.3
20240614120638 76 187 0.0 0.0 0.00 0.03 0.00 95 1013.3
20240614115638 75 185 0.0 1.7 0.00 0.03 0.00 95 1013.3
20240614115125 75 183 0.0 0.0 0.00 0.03 0.00 95 1013.4
20240614113627 75 183 0.0 0.0 0.00 0.03 0.00 95 1013.4
20240614112627 75 183 0.0 0.0 0.00 0.03 0.00 95 1013.2
20240614111624 75 181 0.0 0.0 0.00 0.03 0.00 95 1013.0
20240614110625 74 183 0.0 0.0 0.00 0.03 0.00 95 1012.8
20240614105624 74 183 0.0 0.0 0.00 0.03 0.00 95 1012.7
20240614104622 74 183 0.0 0.0 0.00 0.03 0.00 95 1012.5
20240614104054 73 188 0.0 0.0 0.00 0.03 0.00 95 1012.3
20240614102624 73 188 0.0 0.0 0.00 0.03 0.00 95 1012.3
20240614101622 72 187 0.0 0.0 0.00 0.03 0.00 95 1012.3
20240614100620 73 187 0.0 0.0 0.00 0.03 0.00 95 1012.3
20240614095620 72 187 0.0 0.0 0.00 0.03 0.00 95 1012.2
20240614095056 73 187 0.0 0.0 0.00 0.03 0.00 95 1012.0
20240614093622 73 187 0.0 0.0 0.00 0.03 0.00 95 1011.8
20240614092620 73 187 0.0 0.0 0.00 0.03 0.00 95 1011.7
20240614091620 73 187 0.0 0.0 0.00 0.03 0.00 95 1011.6
20240614090618 73 187 0.0 0.0 0.00 0.03 0.00 94 1011.4
20240614085618 73 187 0.0 0.0 0.00 0.03 0.00 94 1011.3
20240614085551 73 187 0.0 0.9 0.00 0.03 0.00 94 1011.3
20240614083620 73 187 0.0 2.6 0.00 0.03 0.00 94 1011.1
20240614082614 73 187 0.0 0.9 0.00 0.03 0.00 94 1011.1
20240614081612 74 187 0.0 2.6 0.00 0.03 0.00 94 1011.0
20240614081051 73 187 0.9 2.6 0.00 0.03 0.00 94 1011.1
20240614075611 73 187 0.0 0.9 0.00 0.03 0.00 94 1011.0
20240614074610 73 187 0.0 0.9 0.00 0.03 0.00 94 1010.9
20240614073612 74 187 0.9 3.5 0.00 0.03 0.00 94 1011.0
20240614072611 74 187 0.0 2.6 0.00 0.03 0.00 94 1011.0
20240614071609 73 187 0.0 0.0 0.00 0.03 0.00 94 1011.0
20240614070604 74 187 0.0 0.0 0.00 0.03 0.00 94 1011.2
20240614065604 74 187 0.0 0.0 0.00 0.03 0.00 94 1011.1
20240614064602 74 187 0.0 0.0 0.00 0.03 0.00 94 1011.0
20240614063604 74 187 0.0 0.9 0.00 0.03 0.00 94 1011.0
20240614062602 74 187 0.9 2.6 0.00 0.03 0.00 94 1011.3
20240614061604 74 187 0.9 2.6 0.00 0.03 0.00 94 1011.4
20240614060603 74 187 0.0 2.6 0.00 0.03 0.00 94 1011.6
20240614055603 74 187 0.0 0.0 0.00 0.03 0.00 94 1011.7
20240614054602 75 187 0.0 0.0 0.00 0.03 0.00 94 1011.8
20240614053603 75 187 0.0 0.0 0.00 0.03 0.00 94 1012.0
20240614052602 75 187 0.0 2.6 0.00 0.03 0.00 94 1012.2
20240614051600 75 187 1.7 3.5 0.00 0.03 0.00 94 1012.2
20240614050559 75 187 1.7 6.1 0.00 0.03 0.00 94 1012.3
20240614045559 75 180 1.7 5.2 0.00 0.03 0.00 94 1012.3
20240614044559 75 164 1.7 3.5 0.00 0.03 0.00 94 1012.4
20240614043559 75 148 1.7 5.2 0.00 0.03 0.00 94 1012.5
20240614042558 75 138 1.7 4.3 0.00 0.03 0.00 94 1012.6
20240614041559 75 164 1.7 3.5 0.00 0.03 0.00 94 1012.7
20240614040555 75 88 0.9 2.6 0.00 0.03 0.00 93 1012.8
20240614035553 75 34 0.0 1.7 0.00 0.03 0.03 93 1012.7
20240614034554 76 34 0.0 2.6 0.00 0.03 0.03 94 1012.9
20240614033550 75 34 1.7 3.5 0.00 0.03 0.03 93 1012.9
20240614032547 75 50 0.9 2.6 0.00 0.03 0.03 93 1012.9
20240614031547 74 336 1.7 2.6 0.00 0.03 0.03 93 1012.7
20240614030547 74 335 1.7 3.5 0.00 0.03 0.03 93 1012.6
20240614025541 74 121 0.9 2.6 0.00 0.03 0.03 93 1012.5
20240614025027 74 121 0.0 0.9 0.00 0.03 0.03 93 1012.3
20240614024022 74 121 0.9 3.5 0.00 0.03 0.03 93 1012.0
20240614022541 74 109 0.9 3.5 0.01 0.03 0.03 93 1011.7
20240614021539 74 107 0.9 3.5 0.01 0.03 0.03 92 1011.6
20240614020537 74 345 0.9 2.6 0.02 0.03 0.03 92 1011.6
20240614015536 75 347 0.9 2.6 0.02 0.03 0.03 92 1011.6
20240614014537 75 348 0.9 5.2 0.02 0.03 0.03 92 1011.6
20240614013537 75 345 0.0 2.6 0.02 0.03 0.03 92 1011.8
20240614012536 75 310 1.7 3.5 0.01 0.02 0.02 91 1011.7
20240614011536 76 316 0.9 3.5 0.01 0.02 0.02 91 1011.8
20240614011454 75 326 0.0 1.7 0.01 0.01 0.01 91 1011.7
20240614005523 76 326 0.9 3.5 0.01 0.01 0.01 90 1012.1
20240614004524 76 345 1.7 5.2 0.01 0.01 0.01 90 1012.1
20240614003517 77 296 5.2 9.6 0.01 0.01 0.01 91 1012.1
20240614002516 78 354 3.5 7.0 0.01 0.01 0.01 91 1012.1
20240614002001 78 316 1.7 4.3 0.01 0.01 0.01 90 1011.9
20240614000957 79 35 1.7 3.5 0.00 0.00 0.00 90 1012.0
20240613235505 79 38 3.5 9.6 0.00 0.00 0.00 88 1011.7
20240613234504 79 5 2.6 7.8 0.00 0.00 0.00 86 1011.7
20240613233503 81 359 5.2 11.3 0.00 0.00 0.00 84 1011.6
20240613233005 83 55 0.9 7.0 0.00 0.00 0.00 79 1011.6
20240613231942 82 268 1.7 3.5 0.00 0.00 0.00 78 1011.3
20240613230942 83 299 1.7 7.0 0.00 0.00 0.00 77 1011.2
20240613225941 84 4 2.6 7.8 0.00 0.00 0.00 74 1011.3
20240613224456 85 324 1.7 4.3 0.00 0.00 0.00 72 1011.3
20240613223457 87 44 2.6 7.8 0.00 0.00 0.00 68 1011.0
20240613222504 88 128 5.2 9.6 0.00 0.00 0.00 62 1011.0
20240613221441 88 152 5.2 10.4 0.00 0.00 0.00 63 1010.6
20240613220443 90 190 5.2 11.3 0.00 0.00 0.00 62 1010.4
20240613215442 90 140 5.2 13.0 0.00 0.00 0.00 63 1010.4
20240613214916 91 231 4.3 8.7 0.00 0.00 0.00 64 1010.5
20240613213442 91 195 5.2 11.3 0.00 0.00 0.00 65 1010.4
20240613212431 91 175 4.3 9.6 0.00 0.00 0.00 66 1010.3
20240613211431 91 172 4.3 8.7 0.00 0.00 0.00 65 1010.4
20240613210431 91 193 5.2 9.6 0.00 0.00 0.00 66 1010.5
20240613205432 90 178 6.1 11.3 0.00 0.00 0.00 67 1010.6
20240613204433 90 186 6.1 11.3 0.00 0.00 0.00 69 1010.7
20240613203426 89 205 7.0 13.0 0.00 0.00 0.00 70 1010.7
20240613202426 90 177 7.0 13.0 0.00 0.00 0.00 70 1010.9
20240613201422 90 166 7.0 13.9 0.00 0.00 0.00 70 1011.0
20240613200423 90 175 7.0 13.0 0.00 0.00 0.00 72 1011.0
20240613195425 90 158 6.1 14.8 0.00 0.00 0.00 69 1011.0
20240613194422 93 174 4.3 9.6 0.00 0.00 0.00 62 1011.1
20240613193420 92 211 5.2 10.4 0.00 0.00 0.00 65 1011.2
20240613192857 93 181 3.5 7.8 0.00 0.00 0.00 65 1011.3
20240613191419 92 199 3.5 9.6 0.00 0.00 0.00 64 1011.5
20240613190853 91 136 1.7 6.1 0.00 0.00 0.00 66 1011.6
20240613185420 92 184 3.5 9.6 0.00 0.00 0.00 64 1011.7
20240613184419 91 127 3.5 7.0 0.00 0.00 0.00 68 1011.9
20240613183420 91 176 2.6 7.8 0.00 0.00 0.00 67 1012.0
20240613182419 90 200 2.6 6.1 0.00 0.00 0.00 69 1012.0
20240613181913 89 151 2.6 6.1 0.00 0.00 0.00 71 1012.1
20240613180419 88 162 2.6 7.0 0.00 0.00 0.00 72 1012.1
20240613175419 87 157 1.7 4.3 0.00 0.00 0.00 72 1012.1
20240613174421 87 181 1.7 4.3 0.00 0.00 0.00 72 1012.0
20240613173420 87 232 0.9 3.5 0.00 0.00 0.00 73 1012.0
20240613172417 87 157 2.6 6.1 0.00 0.00 0.00 76 1012.3
20240613171419 87 197 2.6 7.0 0.00 0.00 0.00 75 1012.3
20240613170414 87 177 3.5 7.0 0.00 0.00 0.00 75 1012.3
20240613165414 88 206 2.6 7.0 0.00 0.00 0.00 73 1012.2
20240613164414 87 136 1.7 5.2 0.00 0.00 0.00 72 1012.1
20240613163415 88 129 1.7 7.0 0.00 0.00 0.00 72 1012.1
20240613162415 87 152 1.7 5.2 0.00 0.00 0.00 78 1012.2
20240613161416 87 39 1.7 3.5 0.00 0.00 0.00 76 1012.1
20240613160417 86 227 1.7 4.3 0.00 0.00 0.00 77 1012.1
20240613155406 87 15 1.7 6.1 0.00 0.00 0.00 76 1012.2
20240613154404 86 313 1.7 4.3 0.00 0.00 0.00 77 1012.1
20240613153405 85 354 0.9 3.5 0.00 0.00 0.00 79 1012.2
20240613152404 84 0 0.9 3.5 0.00 0.00 0.00 82 1012.2
20240613151404 83 338 0.9 2.6 0.00 0.00 0.00 82 1012.2
20240613150402 84 337 1.7 4.3 0.00 0.00 0.00 80 1012.3
20240613145402 83 321 1.7 3.5 0.00 0.00 0.00 81 1012.4
20240613144404 83 321 1.7 2.6 0.00 0.00 0.00 83 1012.5
20240613143402 82 301 1.7 3.5 0.00 0.00 0.00 82 1012.5
20240613142401 82 310 1.7 4.3 0.00 0.00 0.00 84 1012.4
20240613141400 82 269 1.7 3.5 0.00 0.00 0.00 85 1012.4
20240613140401 82 269 2.6 4.3 0.00 0.00 0.00 85 1012.4
20240613135401 82 212 0.9 5.2 0.00 0.00 0.00 83 1012.4
20240613134401 82 168 0.9 2.6 0.00 0.00 0.00 84 1012.5
20240613133350 82 160 2.6 6.1 0.00 0.00 0.00 84 1012.5
20240613132352 83 202 2.6 7.0 0.00 0.00 0.00 83 1012.4
20240613131350 82 249 0.9 3.5 0.00 0.00 0.00 85 1012.1
20240613130839 81 216 0.9 3.5 0.00 0.00 0.00 86 1011.9
20240613125347 81 160 2.6 5.2 0.00 0.00 0.00 87 1012.1
20240613124817 80 191 4.3 7.8 0.00 0.00 0.00 89 1012.0
20240613123835 79 232 4.3 8.7 0.00 0.00 0.00 91 1012.1
20240613122822 79 206 3.5 7.8 0.00 0.00 0.00 91 1012.2